Regional Weather Roundup
Issued by NWS

Home | Current Version | Previous Version | Text Only | Print | Product List | Glossary Off
Versions: 1 2 3 4 5 6 7 8 9 10 11 12 13 14 15 16 17 18 19 20 21 22 23 24 25 26 27 28 29 30 31 32 33 34 35 36 37 38 39 40 41 42 43 44 45 46 47 48 49 50

000
ASUS42 KTBW 010117
RWRFL
FLORIDA REGIONAL WEATHER ROUNDUP
NATIONAL WEATHER SERVICE TAMPA BAY RUSKIN FL
900 PM EDT FRI JUL 31 2015

NOTE: "FAIR" INDICATES FEW OR NO CLOUDS BELOW 12,000 FEET WITH NO
SIGNIFICANT WEATHER AND/OR OBSTRUCTIONS TO VISIBILITY.


FLZ001>010-012>015-112-114-115-010200-
PANHANDLE FLORIDA

CITY           SKY/WX    TMP DP  RH WIND       PRES   REMARKS
PENSACOLA      LGT RAIN  76  74  93 N6        29.88S
PENSACOLA NAS  MOCLDY    76  73  91 NW5       29.88S
MILTON NAS     MOCLDY    76  74  93 N3        29.89F
CRESTVIEW      MOCLDY    79  78  97 CALM      29.91R
DUKE FIELD     MOCLDY    78  75  90 VRB1      29.89R
VALPARAISO     MOCLDY    80  75  83 NW3       29.89S
MARY ESTHER    FAIR      79  75  89 NE3       29.88
TRI COUNTY     FAIR      79  78  97 CALM      29.90R THUNDER
PANAMA CITY    FAIR      80  75  84 CALM      29.89R
TYNDALL AFB    MOCLDY    81  78  90 S3        29.90R
APALACHICOLA   FAIR      83  77  82 NW3       29.90R

STATION/POSITION SKY/WX   TEMP    WIND        PRES    WAVE   SWELL
                          AIR SEA DIR/SP/G            HT/PER HT/PER
                          (F)     (DEG/KT/KT) (MB)    (FT/S) (FT/S)
30.1N   87.6W              82 86   20/ 14/ 16 1011.2R   1/ 3
29.2N   88.2W              85 90   40/  2/  6 1012.2R   1/ 3
28.8N   86.0W              85 86  230/ 10/ 12 1011.9R   3/ 6   2/ 6
PANAMA CITY BEAC           85 87  140/  4/  4 1011.5R
CAPE SAN BLAS    NOT AVBL
TOWER C                    83     220/ 12/ 13 1012.4R
28.5N   84.5W              83 85  230/ 17/ 19 1012.5R   4/ 6

$$
FLZ011-016>038-118-127-128-134-139-239-010200-
NORTH FLORIDA

CITY           SKY/WX    TMP DP  RH WIND       PRES   REMARKS
MARIANNA       FAIR      82  78  88 S3        29.88R
TALLAHASSEE    MOCLDY    85  76  74 S3        29.89R
PERRY          FAIR      81  81 100 S3        29.92R
CROSS CITY       N/A     78  75  90 CALM      29.92R
LAKE CITY      FAIR      81  77  89 CALM      29.94R
GAINESVILLE    FAIR      77  74  90 S3        29.95R
MAYPORT NAS    FAIR      81  76  84 W3        29.94R THUNDER
JACKSONVILLE   CLOUDY    78  77  96 N6        29.94R THUNDER
JAX NAS        MOCLDY    85  73  67 S8        29.94R
JAX CRAIG      FAIR      82  76  81 SW6       29.93R
JAX CECIL      MOCLDY    81  75  83 SW5       29.93R
FERNANDINA BEA FAIR      81  73  78 CALM      29.92S
ST AUGUSTINE   CLOUDY    82  75  79 SW5       29.95R

STATION/POSITION SKY/WX   TEMP    WIND        PRES    WAVE   SWELL
                          AIR SEA DIR/SP/G            HT/PER HT/PER
                          (F)     (DEG/KT/KT) (MB)    (FT/S) (FT/S)
SHELL POINT                86     210/ 11/ 14   N/A
KEATON BEACH               83     210/  9/ 12 1012.9R
CEDAR KEY                  79     220/  8/ 10 1014.0R
FERNANDINA                 81 86  310/  5/  9 1012.5R
30.7N   81.3W                 84                N/A     3/ 4
MAYPORT                    81 83  230/  6/  8 1013.4R
31.4N   80.9W              83 83  190/ 14/ 16 1013.1R   3/ 4
ST AUGUSTINE               81 82  220/  6/  7 1014.7R

$$
FLZ040-043>046-052-053-057-058-063-144-010200-
INTERIOR CENTRAL FLORIDA

CITY           SKY/WX    TMP DP  RH WIND       PRES   REMARKS
OCALA          MOCLDY    79  73  83 S3        29.95S
THE VILLAGES     N/A     75  75 100 S6        29.87R
LEESBURG       MOCLDY    76  74  93 SW9       29.98R
SANFORD        MOCLDY    83  70  64 S8        29.97R
ORLANDO EXEC   MOCLDY    79  72  79 SW12      29.98R
ORLANDO INTL   MOCLDY    76  74  93 SW7       30.00R
KISSIMMEE      PTCLDY    77  72  83 S7        29.99R
WINTER HAVEN   FAIR      79  72  79 SW6       30.01R
LAKELAND       MOCLDY    77  73  88 SW9       30.00R
BARTOW         FAIR      75  72  88 CALM      30.01R
OKEECHOBEE       N/A     73  70  88 SE3       30.02R

$$
FLZ041-047-054-059-064-141-147-010200-
EAST CENTRAL FLORIDA

CITY           SKY/WX    TMP DP  RH WIND       PRES   REMARKS
DAYTONA BEACH  MOCLDY    81  73  76 S6        29.97R
DELAND           N/A     82  72  69 CALM      29.97R
JFK SPACE CTR  CLOUDY    78  73  83 S7        29.97R
TITUSVILLE     CLOUDY    77  73  88 S12       29.99R
CAPE CANAVERAL CLOUDY    77  73  87 S16G25    29.98R
PATRICK AFB    FAIR      77  71  83 S15       30.00R
MELBOURNE      FAIR      76  71  85 S10       30.00R
VERO BEACH     CLOUDY    76  69  79 S7        30.02R
FT PIERCE      FAIR      76  69  79 S8        30.01S
STUART         PTCLDY    72  68  88 CALM      30.04S

STATION/POSITION SKY/WX   TEMP    WIND        PRES    WAVE   SWELL
                          AIR SEA DIR/SP/G            HT/PER HT/PER
                          (F)     (DEG/KT/KT) (MB)    (FT/S) (FT/S)
28.5N   80.2W              78 81  190/ 10/ 12 1015.1R
28.9N   78.5W              83 84  190/ 17/ 21 1015.5R
TRIDENT PIER               76 79  170/  9/ 13 1015.8R
28.4N   80.5W                 78                N/A     2/ 4
27.5N   80.2W                 78                N/A     3/ 4

$$
FLZ050-056-061-142-242-148-248-149-249-151-251-155-255-
160-260-010200-
WEST CENTRAL FLORIDA

CITY           SKY/WX    TMP DP  RH WIND       PRES   REMARKS
CRYSTAL RIVER  CLOUDY    77  77 100 CALM      29.94S
INVERNESS      MOCLDY    77  77 100 S5        29.96S
BROOKSVILLE    LGT RAIN  77  75  93 S7        29.98R
ZEPHYRHILLS    CLOUDY    73  73 100 CALM      29.99R
CLEARWATER     CLOUDY    79  72  79 SW8       29.97R
TAMPA INTL     CLOUDY    78  73  84 S12       29.99R
TAMPA EXEC     DRIZZLE   79  73  83 SW5       29.99R
PLANT CITY     CLOUDY    77  75  94 SW6       30.01S
MACDILL AFB    CLOUDY    77  77 100 SW9       29.98S
PETER O KNIGHT DRIZZLE   79  77  94 SW6       29.99R
ST PETERSBURG  MOCLDY    79  73  82 SW5       29.97R
SARASOTA       LGT RAIN  76  73  91 W5        29.98R
VENICE         FAIR      81  73  78 NW12      30.01R

STATION/POSITION SKY/WX   TEMP    WIND        PRES    WAVE   SWELL
                          AIR SEA DIR/SP/G            HT/PER HT/PER
                          (F)     (DEG/KT/KT) (MB)    (FT/S) (FT/S)
CEDAR KEY                  79     220/  8/ 10 1014.0R
28.5N   84.5W              83 85  230/ 17/ 19 1012.5R   4/ 6
27.3N   84.2W                 84                N/A     5/ 6
CLEARWATER BEACH           81 84  220/ 18/ 23 1014.4R
MIDDLE TAMPA BAY           80     240/ 16/ 18 1015.1R
VENICE                     80 85  290/ 12/ 14 1015.3R

$$
FLZ066-069-070-075>078-162-262-165-265-010200-
SOUTHWEST FLORIDA AND KEYS

CITY           SKY/WX    TMP DP  RH WIND       PRES   REMARKS
PUNTA GORDA    CLOUDY    79  76  90 CALM      30.01R
FT MYERS       FAIR      85  76  74 SW6       29.99R
SOUTHWEST INTL CLOUDY    84  76  76 SW7       30.00R
NAPLES         FAIR      87  79  76 S6        30.00R HX 101
MARCO ISLAND   FAIR      84  75  74 SW3       30.01R
MARATHON       CLOUDY    86  78  77 E5        30.02R HX  98
KEY WEST NAS   PTCLDY    85  76  74 SE3       30.01R
KEY WEST INTL  MOCLDY    86  78  77 SE3       30.01R HX  98

STATION/POSITION SKY/WX   TEMP    WIND        PRES    WAVE   SWELL
                          AIR SEA DIR/SP/G            HT/PER HT/PER
                          (F)     (DEG/KT/KT) (MB)    (FT/S) (FT/S)
VENICE                     80 85  290/ 12/ 14 1015.3R
NAPLES                        86              1016.3R
26.0N   85.6W              80 84  280/  8/ 10 1014.7R   4/ 6   3/ 6
DRY TORTUGAS               86     210/  3/  4 1015.4R
NW FL BAY                  87     150/  5/  7 1015.9
SAND KEY                   85     110/  3/  4 1016.1R
SOMBRERO KEY               85      70/  2/  3 1017.2R
LONG KEY                   83 90   40/ 18/ 20 1017.8R
MOLASSES REEF              82 87  350/  8/ 10 1017.0R

$$
FLZ067-068-071>074-168-172>174-010200-
SOUTHEAST FLORIDA

CITY           SKY/WX    TMP DP  RH WIND       PRES   REMARKS
W PALM BEACH   LGT RAIN  75  72  90 SE5       30.03F
FT LAUDER-EXEC FAIR      79  68  69 CALM      30.03R
FT LAUDERDALE  CLOUDY    77  69  76 NW7       30.02R
POMPANO BEACH  CLOUDY    79  68  69 N3        30.03R
PEMBROKE PINES FAIR      78  66  66 NW8       30.04R
OPA LOCKA      CLOUDY    76  70  82 W7        30.03R
MIAMI          MOCLDY    75  70  84 W7        30.03R
WEST KENDALL   LGT RAIN  73  71  93 W6        30.04R
HOMESTEAD      FAIR      75  71  85 NW7       30.03S

STATION/POSITION SKY/WX   TEMP    WIND        PRES    WAVE   SWELL
                          AIR SEA DIR/SP/G            HT/PER HT/PER
                          (F)     (DEG/KT/KT) (MB)    (FT/S) (FT/S)
PORT EVERGLADES            79     320/  4/  6 1016.7R
VIRGINIA KEY               80 86  150/  4/  5 1016.3R
LAKE WORTH                 74 83   50/  9/ 10 1016.6R
SETTLEMENT POINT           84     300/ 16/ 18 1017.4F

$$




USA.gov is the U.S. government's official web portal to all federal, state and local government web resources and services.